Time,TemperatureF,DewpointF,PressureIn,WindDirection,WindDirectionDegrees,WindSpeedMPH,WindSpeedGustMPH,Humidity,HourlyPrecipIn,Conditions,Clouds,dailyrainin,SoftwareType,DateUTC
2013-08-09 00:00:00,47.7,-99.9,29.88,SSW,207,1.0,5.0,1,0.00,,,0.05,WeatherCatV1.21B27,2013-08-09 07:00:00,
2013-08-09 00:05:00,47.7,-99.9,29.88,ESE,123,0.0,0.0,1,0.00,,,0.00,WeatherCatV1.21B27,2013-08-09 07:05:00,
2013-08-09 00:10:00,47.8,-99.9,29.87,SE,125,1.0,3.0,1,0.00,,,0.00,WeatherCatV1.21B27,2013-08-09 07:10:00,
2013-08-09 00:15:00,47.9,-99.9,29.87,SE,146,0.0,1.0,1,0.00,,,0.00,WeatherCatV1.21B27,2013-08-09 07:15:00,
2013-08-09 00:20:00,47.9,-99.9,29.87,South,190,0.0,0.0,1,0.00,,,0.00,WeatherCatV1.21B27,2013-08-09 07:20:00,
2013-08-09 00:25:00,48.0,-99.9,29.87,South,190,0.0,0.0,1,0.00,,,0.00,WeatherCatV1.21B27,2013-08-09 07:25:00,
2013-08-09 00:30:00,48.1,-99.9,29.88,South,182,0.0,0.0,1,0.00,,,0.00,WeatherCatV1.21B27,2013-08-09 07:30:00,
2013-08-09 00:35:00,48.1,-99.9,29.88,SSE,161,0.0,0.0,1,0.00,,,0.00,WeatherCatV1.21B27,2013-08-09 07:35:00,
2013-08-09 00:40:00,48.1,-99.9,29.88,ESE,105,0.0,8.0,1,0.00,,,0.00,WeatherCatV1.21B27,2013-08-09 07:40:00,
2013-08-09 00:45:00,48.1,-99.9,29.87,South,190,2.0,2.0,1,0.00,,,0.00,WeatherCatV1.21B27,2013-08-09 07:45:00,
2013-08-09 00:50:00,48.2,-99.9,29.87,ESE,118,0.0,1.0,1,0.00,,,0.00,WeatherCatV1.21B27,2013-08-09 07:50:00,
2013-08-09 00:55:00,48.3,-99.9,29.87,NE,51,4.0,4.0,1,0.00,,,0.00,WeatherCatV1.21B27,2013-08-09 07:55:00,
2013-08-09 01:00:00,48.3,-99.9,29.87,SE,146,0.0,4.0,1,0.00,,,0.00,WeatherCatV1.21B27,2013-08-09 08:00:00,
2013-08-09 01:05:00,48.4,-99.9,29.87,SSE,168,0.0,5.0,1,0.00,,,0.00,WeatherCatV1.21B27,2013-08-09 08:05:00,
2013-08-09 01:10:00,48.4,-99.9,29.86,NE,56,3.0,3.0,1,0.00,,,0.00,WeatherCatV1.21B27,2013-08-09 08:10:00,
2013-08-09 01:15:00,48.5,-99.9,29.86,South,178,3.0,8.0,1,0.00,,,0.00,WeatherCatV1.21B27,2013-08-09 08:15:00,
2013-08-09 01:20:00,48.5,-99.9,29.86,SSE,148,2.0,5.0,1,0.00,,,0.00,WeatherCatV1.21B27,2013-08-09 08:20:00,
2013-08-09 01:25:00,48.5,-99.9,29.86,SW,224,0.0,0.0,1,0.00,,,0.00,WeatherCatV1.21B27,2013-08-09 08:25:00,
2013-08-09 01:30:00,48.6,-99.9,29.86,South,182,0.0,3.0,1,0.00,,,0.00,WeatherCatV1.21B27,2013-08-09 08:30:00,
2013-08-09 01:35:00,48.7,-99.9,29.86,South,178,0.0,0.0,1,0.00,,,0.00,WeatherCatV1.21B27,2013-08-09 08:35:00,
2013-08-09 01:40:00,48.7,-99.9,29.87,SSE,160,12.0,12.0,1,0.00,,,0.00,WeatherCatV1.21B27,2013-08-09 08:40:00,
2013-08-09 01:45:00,48.7,-99.9,29.86,SSE,158,0.0,2.0,1,0.00,,,0.00,WeatherCatV1.21B27,2013-08-09 08:45:00,
2013-08-09 01:50:00,48.7,-99.9,29.86,SE,146,0.0,0.0,1,0.00,,,0.00,WeatherCatV1.21B27,2013-08-09 08:50:00,
2013-08-09 01:55:00,48.7,-99.9,29.86,ESE,115,0.0,2.0,1,0.00,,,0.00,WeatherCatV1.21B27,2013-08-09 08:55:00,
2013-08-09 02:00:00,48.8,-99.9,29.86,SE,137,0.0,5.0,1,0.00,,,0.00,WeatherCatV1.21B27,2013-08-09 09:00:00,
2013-08-09 02:05:00,48.8,-99.9,29.86,SE,138,0.0,0.0,1,0.00,,,0.00,WeatherCatV1.21B27,2013-08-09 09:05:00,
2013-08-09 02:10:00,48.8,-99.9,29.86,South,180,0.0,2.0,1,0.00,,,0.00,WeatherCatV1.21B27,2013-08-09 09:10:00,
2013-08-09 02:15:00,48.7,-99.9,29.86,SE,132,1.0,2.0,1,0.00,,,0.00,WeatherCatV1.21B27,2013-08-09 09:15:00,
2013-08-09 02:20:00,48.8,-99.9,29.86,SE,129,0.0,2.0,1,0.00,,,0.00,WeatherCatV1.21B27,2013-08-09 09:20:00,
2013-08-09 02:25:00,48.8,-99.9,29.86,SSE,163,2.0,2.0,1,0.00,,,0.00,WeatherCatV1.21B27,2013-08-09 09:25:00,
2013-08-09 02:30:00,48.8,-99.9,29.86,SSE,163,0.0,0.0,1,0.00,,,0.00,WeatherCatV1.21B27,2013-08-09 09:30:00,
2013-08-09 02:35:00,48.8,-99.9,29.86,ESE,111,2.0,4.0,1,0.00,,,0.00,WeatherCatV1.21B27,2013-08-09 09:35:00,
2013-08-09 02:40:00,48.7,-99.9,29.85,SSE,154,2.0,4.0,1,0.00,,,0.00,WeatherCatV1.21B27,2013-08-09 09:40:00,
2013-08-09 02:45:00,48.7,-99.9,29.86,South,183,0.0,2.0,1,0.00,,,0.00,WeatherCatV1.21B27,2013-08-09 09:45:00,
2013-08-09 02:50:00,48.7,-99.9,29.85,SSE,158,2.0,3.0,1,0.00,,,0.00,WeatherCatV1.21B27,2013-08-09 09:50:00,
2013-08-09 02:55:00,48.6,-99.9,29.85,South,178,0.0,3.0,1,0.00,,,0.00,WeatherCatV1.21B27,2013-08-09 09:55:00,
2013-08-09 03:00:00,48.6,-99.9,29.85,SSE,163,0.0,0.0,1,0.00,,,0.00,WeatherCatV1.21B27,2013-08-09 10:00:00,
2013-08-09 03:05:00,48.6,-99.9,29.85,ESE,109,1.0,3.0,1,0.00,,,0.00,WeatherCatV1.21B27,2013-08-09 10:05:00,
2013-08-09 03:10:00,48.6,-99.9,29.85,SE,136,0.0,0.0,1,0.00,,,0.00,WeatherCatV1.21B27,2013-08-09 10:10:00,
2013-08-09 03:15:00,48.6,-99.9,29.85,SE,129,0.0,1.0,1,0.00,,,0.00,WeatherCatV1.21B27,2013-08-09 10:15:00,
2013-08-09 03:20:00,48.6,-99.9,29.85,South,185,0.0,0.0,1,0.00,,,0.00,WeatherCatV1.21B27,2013-08-09 10:20:00,
2013-08-09 03:25:00,48.6,-99.9,29.85,South,173,0.0,0.0,1,0.00,,,0.00,WeatherCatV1.21B27,2013-08-09 10:25:00,
2013-08-09 03:30:00,48.5,-99.9,29.85,SE,126,0.0,0.0,1,0.00,,,0.00,WeatherCatV1.21B27,2013-08-09 10:30:00,
2013-08-09 03:35:00,48.5,-99.9,29.85,South,184,0.0,0.0,1,0.00,,,0.00,WeatherCatV1.21B27,2013-08-09 10:35:00,
2013-08-09 03:40:00,48.5,-99.9,29.85,SSE,164,0.0,0.0,1,0.00,,,0.00,WeatherCatV1.21B27,2013-08-09 10:40:00,
2013-08-09 03:45:00,48.5,-99.9,29.85,ENE,63,3.0,3.0,1,0.00,,,0.00,WeatherCatV1.21B27,2013-08-09 10:45:00,
2013-08-09 03:50:00,48.5,-99.9,29.85,SE,132,0.0,2.0,1,0.00,,,0.00,WeatherCatV1.21B27,2013-08-09 10:50:00,
2013-08-09 03:55:00,48.5,-99.9,29.85,ESE,122,0.0,0.0,1,0.00,,,0.00,WeatherCatV1.21B27,2013-08-09 10:55:00,
2013-08-09 04:00:00,48.5,-99.9,29.85,South,173,0.0,1.0,1,0.00,,,0.00,WeatherCatV1.21B27,2013-08-09 11:00:00,
2013-08-09 04:05:00,48.5,-99.9,29.85,SSE,161,1.0,2.0,1,0.00,,,0.00,WeatherCatV1.21B27,2013-08-09 11:05:00,
2013-08-09 04:10:00,48.4,-99.9,29.85,SSE,161,0.0,0.0,1,0.00,,,0.00,WeatherCatV1.21B27,2013-08-09 11:10:00,
2013-08-09 04:15:00,48.5,-99.9,29.85,SSE,162,0.0,0.0,1,0.00,,,0.00,WeatherCatV1.21B27,2013-08-09 11:15:00,
2013-08-09 04:20:00,48.4,-99.9,29.85,SSE,161,0.0,0.0,1,0.00,,,0.00,WeatherCatV1.21B27,2013-08-09 11:20:00,
2013-08-09 04:25:00,48.5,-99.9,29.84,ENE,66,2.0,5.0,1,0.00,,,0.00,WeatherCatV1.21B27,2013-08-09 11:25:00,
2013-08-09 04:30:00,48.4,-99.9,29.84,South,182,4.0,5.0,1,0.00,,,0.00,WeatherCatV1.21B27,2013-08-09 11:30:00,
2013-08-09 04:35:00,48.4,-99.9,29.84,SE,127,0.0,2.0,1,0.00,,,0.00,WeatherCatV1.21B27,2013-08-09 11:35:00,
2013-08-09 04:40:00,48.3,-99.9,29.84,South,185,0.0,1.0,1,0.00,,,0.00,WeatherCatV1.21B27,2013-08-09 11:40:00,
2013-08-09 04:45:00,48.4,-99.9,29.84,SSW,194,0.0,3.0,1,0.00,,,0.00,WeatherCatV1.21B27,2013-08-09 11:45:00,
2013-08-09 04:50:00,48.3,-99.9,29.84,SSE,165,0.0,1.0,1,0.00,,,0.00,WeatherCatV1.21B27,2013-08-09 11:50:00,
2013-08-09 04:55:00,48.3,-99.9,29.84,SSE,150,0.0,1.0,1,0.00,,,0.00,WeatherCatV1.21B27,2013-08-09 11:55:00,
2013-08-09 05:00:00,48.2,-99.9,29.84,South,176,0.0,0.0,1,0.00,,,0.00,WeatherCatV1.21B27,2013-08-09 12:00:00,
2013-08-09 05:10:00,48.0,-99.9,29.85,SSE,163,3.0,3.0,1,0.00,,,0.00,WeatherCatV1.21B27,2013-08-09 12:10:00,
2013-08-09 05:15:00,48.0,-99.9,29.85,South,169,0.0,0.0,1,0.00,,,0.00,WeatherCatV1.21B27,2013-08-09 12:15:00,
2013-08-09 05:20:00,47.9,-99.9,29.85,South,169,0.0,0.0,1,0.00,,,0.00,WeatherCatV1.21B27,2013-08-09 12:20:00,
2013-08-09 05:25:00,47.8,-99.9,29.85,SSW,196,0.0,1.0,1,0.00,,,0.00,WeatherCatV1.21B27,2013-08-09 12:25:00,
2013-08-09 05:30:00,47.7,-99.9,29.85,South,171,0.0,0.0,1,0.00,,,0.00,WeatherCatV1.21B27,2013-08-09 12:30:00,
2013-08-09 05:35:00,47.7,-99.9,29.85,SSE,152,0.0,0.0,1,0.00,,,0.00,WeatherCatV1.21B27,2013-08-09 12:35:00,
2013-08-09 05:40:00,47.6,-99.9,29.85,SE,134,0.0,1.0,1,0.00,,,0.00,WeatherCatV1.21B27,2013-08-09 12:40:00,
2013-08-09 05:45:00,47.6,-99.9,29.85,SE,146,0.0,0.0,1,0.00,,,0.01,WeatherCatV1.21B27,2013-08-09 12:45:00,
2013-08-09 05:50:00,47.6,-99.9,29.85,SSW,196,1.0,2.0,1,0.00,,,0.01,WeatherCatV1.21B27,2013-08-09 12:50:00,
2013-08-09 05:55:00,47.5,-99.9,29.85,SSE,163,0.0,0.0,1,0.00,,,0.01,WeatherCatV1.21B27,2013-08-09 12:55:00,
2013-08-09 06:05:00,47.4,-99.9,29.85,SSE,153,0.0,0.0,1,0.00,,,0.01,WeatherCatV1.21B27,2013-08-09 13:05:00,
2013-08-09 06:10:00,47.4,-99.9,29.85,SE,139,0.0,0.0,1,0.00,,,0.01,WeatherCatV1.21B27,2013-08-09 13:10:00,
2013-08-09 06:15:00,47.3,-99.9,29.85,SE,138,0.0,0.0,1,0.00,,,0.01,WeatherCatV1.21B27,2013-08-09 13:15:00,
2013-08-09 06:20:00,47.4,-99.9,29.85,SE,138,0.0,0.0,1,0.00,,,0.01,WeatherCatV1.21B27,2013-08-09 13:20:00,
2013-08-09 06:25:00,47.4,-99.9,29.85,SE,138,0.0,0.0,1,0.00,,,0.01,WeatherCatV1.21B27,2013-08-09 13:25:00,
2013-08-09 06:30:00,47.5,-99.9,29.85,SE,143,0.0,0.0,1,0.00,,,0.01,WeatherCatV1.21B27,2013-08-09 13:30:00,
2013-08-09 06:35:00,47.5,-99.9,29.85,SE,142,0.0,0.0,1,0.00,,,0.01,WeatherCatV1.21B27,2013-08-09 13:35:00,
2013-08-09 06:40:00,47.5,-99.9,29.85,ESE,111,0.0,0.0,1,0.00,,,0.01,WeatherCatV1.21B27,2013-08-09 13:40:00,
2013-08-09 06:45:00,47.5,-99.9,29.85,SE,130,0.0,0.0,1,0.00,,,0.01,WeatherCatV1.21B27,2013-08-09 13:45:00,
2013-08-09 06:50:00,47.6,-99.9,29.86,SSE,161,0.0,0.0,1,0.00,,,0.01,WeatherCatV1.21B27,2013-08-09 13:50:00,
2013-08-09 06:55:00,47.7,-99.9,29.86,ESE,111,0.0,0.0,1,0.00,,,0.01,WeatherCatV1.21B27,2013-08-09 13:55:00,
2013-08-09 07:00:00,47.7,-99.9,29.86,South,190,0.0,0.0,1,0.00,,,0.01,WeatherCatV1.21B27,2013-08-09 14:00:00,
2013-08-09 07:05:00,47.8,-99.9,29.86,South,188,0.0,0.0,1,0.00,,,0.01,WeatherCatV1.21B27,2013-08-09 14:05:00,
2013-08-09 07:10:00,47.9,-99.9,29.86,South,188,0.0,0.0,1,0.00,,,0.01,WeatherCatV1.21B27,2013-08-09 14:10:00,
2013-08-09 07:15:00,48.1,-99.9,29.86,South,189,0.0,0.0,1,0.00,,,0.01,WeatherCatV1.21B27,2013-08-09 14:15:00,
2013-08-09 07:20:00,48.1,-99.9,29.86,SSW,192,0.0,0.0,1,0.00,,,0.01,WeatherCatV1.21B27,2013-08-09 14:20:00,
2013-08-09 07:25:00,48.2,-99.9,29.87,South,186,0.0,0.0,1,0.00,,,0.01,WeatherCatV1.21B27,2013-08-09 14:25:00,
2013-08-09 07:30:00,48.2,-99.9,29.87,SSE,160,0.0,0.0,1,0.00,,,0.01,WeatherCatV1.21B27,2013-08-09 14:30:00,
2013-08-09 07:40:00,48.7,-99.9,29.87,SSE,160,0.0,0.0,1,0.00,,,0.01,WeatherCatV1.21B27,2013-08-09 14:40:00,
2013-08-09 07:45:00,48.8,-99.9,29.87,SSE,160,0.0,0.0,1,0.00,,,0.01,WeatherCatV1.21B27,2013-08-09 14:45:00,
2013-08-09 07:50:00,48.8,-99.9,29.87,SSE,163,0.0,0.0,1,0.00,,,0.01,WeatherCatV1.21B27,2013-08-09 14:50:00,
2013-08-09 07:55:00,48.8,-99.9,29.87,ESE,111,0.0,0.0,1,0.00,,,0.01,WeatherCatV1.21B27,2013-08-09 14:55:00,
2013-08-09 08:00:00,48.8,-99.9,29.87,NE,49,4.0,5.0,1,0.00,,,0.01,WeatherCatV1.21B27,2013-08-09 15:00:00,
2013-08-09 08:05:00,48.4,-99.9,29.88,ENE,63,2.0,6.0,1,0.00,,,0.01,WeatherCatV1.21B27,2013-08-09 15:05:00,
2013-08-09 08:10:00,48.5,-99.9,29.87,ESE,105,2.0,4.0,1,0.00,,,0.01,WeatherCatV1.21B27,2013-08-09 15:10:00,
2013-08-09 08:15:00,48.5,-99.9,29.88,NNE,30,1.0,1.0,1,0.00,,,0.01,WeatherCatV1.21B27,2013-08-09 15:15:00,
2013-08-09 08:20:00,48.8,-99.9,29.88,SE,145,0.0,0.0,1,0.00,,,0.01,WeatherCatV1.21B27,2013-08-09 15:20:00,
2013-08-09 08:25:00,48.9,-99.9,29.88,ENE,70,0.0,0.0,1,0.00,,,0.01,WeatherCatV1.21B27,2013-08-09 15:25:00,
2013-08-09 08:30:00,49.0,-99.9,29.88,ESE,104,2.0,5.0,1,0.00,,,0.01,WeatherCatV1.21B27,2013-08-09 15:30:00,
2013-08-09 08:40:00,48.9,-99.9,29.88,ENE,77,3.0,9.0,1,0.00,,,0.01,WeatherCatV1.21B27,2013-08-09 15:40:00,
2013-08-09 08:50:00,48.8,-99.9,29.88,NE,41,4.0,4.0,1,0.00,,,0.01,WeatherCatV1.21B27,2013-08-09 15:50:00,
2013-08-09 08:55:00,48.9,-99.9,29.88,SE,125,0.0,7.0,1,0.00,,,0.01,WeatherCatV1.21B27,2013-08-09 15:55:00,
2013-08-09 09:00:00,49.1,-99.9,29.88,East,79,2.0,7.0,1,0.00,,,0.01,WeatherCatV1.21B27,2013-08-09 16:00:00,
2013-08-09 09:05:00,49.3,-99.9,29.88,ESE,102,0.0,1.0,1,0.00,,,0.01,WeatherCatV1.21B27,2013-08-09 16:05:00,
2013-08-09 09:10:00,49.4,-99.9,29.88,East,79,1.0,1.0,1,0.00,,,0.01,WeatherCatV1.21B27,2013-08-09 16:10:00,
2013-08-09 09:15:00,49.7,-99.9,29.88,ENE,78,0.0,0.0,1,0.00,,,0.01,WeatherCatV1.21B27,2013-08-09 16:15:00,
2013-08-09 09:20:00,50.0,-99.9,29.88,East,90,2.0,5.0,1,0.00,,,0.01,WeatherCatV1.21B27,2013-08-09 16:20:00,
2013-08-09 09:25:00,49.5,-99.9,29.88,SE,128,2.0,3.0,1,0.00,,,0.01,WeatherCatV1.21B27,2013-08-09 16:25:00,
2013-08-09 09:30:00,50.1,-99.9,29.88,ESE,110,2.0,5.0,1,0.00,,,0.01,WeatherCatV1.21B27,2013-08-09 16:30:00,
2013-08-09 09:35:00,50.1,-99.9,29.88,East,91,2.0,2.0,1,0.00,,,0.01,WeatherCatV1.21B27,2013-08-09 16:35:00,
2013-08-09 09:40:00,50.4,-99.9,29.88,ENE,67,3.0,6.0,1,0.00,,,0.01,WeatherCatV1.21B27,2013-08-09 16:40:00,
2013-08-09 09:45:00,50.4,-99.9,29.88,East,101,2.0,4.0,1,0.00,,,0.01,WeatherCatV1.21B27,2013-08-09 16:45:00,
2013-08-09 09:50:00,51.0,-99.9,29.88,ENE,62,3.0,4.0,1,0.00,,,0.01,WeatherCatV1.21B27,2013-08-09 16:50:00,
2013-08-09 09:55:00,51.3,-99.9,29.88,East,85,2.0,4.0,1,0.00,,,0.01,WeatherCatV1.21B27,2013-08-09 16:55:00,
2013-08-09 10:00:00,51.9,-99.9,29.88,ESE,111,0.0,2.0,1,0.00,,,0.01,WeatherCatV1.21B27,2013-08-09 17:00:00,
2013-08-09 10:05:00,51.9,-99.9,29.88,East,88,2.0,3.0,1,0.00,,,0.01,WeatherCatV1.21B27,2013-08-09 17:05:00,
2013-08-09 10:10:00,52.4,-99.9,29.88,NNE,26,6.0,6.0,1,0.00,,,0.01,WeatherCatV1.21B27,2013-08-09 17:10:00,
2013-08-09 10:20:00,53.1,-99.9,29.88,ENE,77,8.0,9.0,1,0.00,,,0.01,WeatherCatV1.21B27,2013-08-09 17:20:00,
2013-08-09 10:25:00,53.8,-99.9,29.88,East,80,6.0,6.0,1,0.00,,,0.01,WeatherCatV1.21B27,2013-08-09 17:25:00,
2013-08-09 10:30:00,54.5,-99.9,29.88,WSW,250,4.0,4.0,1,0.00,,,0.01,WeatherCatV1.21B27,2013-08-09 17:30:00,
2013-08-09 10:35:00,55.1,-99.9,29.89,NE,36,6.0,7.0,1,0.00,,,0.01,WeatherCatV1.21B27,2013-08-09 17:35:00,
2013-08-09 10:40:00,56.5,-99.9,29.89,NE,46,5.0,7.0,1,0.00,,,0.01,WeatherCatV1.21B27,2013-08-09 17:40:00,
2013-08-09 10:45:00,59.0,24.2,29.89,NE,53,6.0,8.0,26,0.00,,,0.01,WeatherCatV1.21B27,2013-08-09 17:45:00,
2013-08-09 10:50:00,58.9,41.3,29.88,ESE,117,1.0,2.0,52,0.00,,,0.01,WeatherCatV1.21B27,2013-08-09 17:50:00,
2013-08-09 10:55:00,58.7,47.4,29.89,NE,46,9.0,14.0,66,0.00,,,0.01,WeatherCatV1.21B27,2013-08-09 17:55:00,
2013-08-09 11:00:00,57.9,40.4,29.89,ESE,118,0.0,4.0,52,0.00,,,0.01,WeatherCatV1.21B27,2013-08-09 18:00:00,
2013-08-09 11:05:00,58.5,42.9,29.89,SSW,210,2.0,3.0,56,0.00,,,0.01,WeatherCatV1.21B27,2013-08-09 18:05:00,
2013-08-09 11:10:00,58.6,44.3,29.89,East,84,2.0,6.0,59,0.00,,,0.01,WeatherCatV1.21B27,2013-08-09 18:10:00,
2013-08-09 11:15:00,58.7,45.3,29.89,SSW,203,0.0,2.0,61,0.00,,,0.01,WeatherCatV1.21B27,2013-08-09 18:15:00,
2013-08-09 11:20:00,58.8,45.8,29.89,South,191,2.0,3.0,62,0.00,,,0.01,WeatherCatV1.21B27,2013-08-09 18:20:00,
2013-08-09 11:30:00,58.0,42.4,29.89,South,186,0.0,3.0,56,0.00,,,0.01,WeatherCatV1.21B27,2013-08-09 18:30:00,
2013-08-09 11:35:00,58.1,42.0,29.89,NE,42,3.0,3.0,55,0.00,,,0.01,WeatherCatV1.21B27,2013-08-09 18:35:00,
2013-08-09 11:40:00,58.3,43.1,29.89,East,90,2.0,4.0,57,0.00,,,0.01,WeatherCatV1.21B27,2013-08-09 18:40:00,
2013-08-09 11:45:00,58.8,43.6,29.89,SSW,206,2.0,2.0,57,0.00,,,0.01,WeatherCatV1.21B27,2013-08-09 18:45:00,
2013-08-09 11:50:00,59.2,48.6,29.89,SSE,157,1.0,4.0,68,0.00,,,0.01,WeatherCatV1.21B27,2013-08-09 18:50:00,
2013-08-09 11:55:00,59.7,47.9,29.89,East,88,2.0,2.0,65,0.00,,,0.01,WeatherCatV1.21B27,2013-08-09 18:55:00,
2013-08-09 12:00:00,60.6,50.0,29.89,NNE,28,3.0,3.0,68,0.00,,,0.01,WeatherCatV1.21B27,2013-08-09 19:00:00,
2013-08-09 12:05:00,60.9,52.9,29.88,SE,138,1.0,3.0,75,0.00,,,0.01,WeatherCatV1.21B27,2013-08-09 19:05:00,
2013-08-09 12:10:00,61.0,52.7,29.88,South,191,0.0,1.0,74,0.00,,,0.01,WeatherCatV1.21B27,2013-08-09 19:10:00,
2013-08-09 12:15:00,61.7,53.0,29.88,ESE,118,0.0,5.0,73,0.00,,,0.01,WeatherCatV1.21B27,2013-08-09 19:15:00,
2013-08-09 12:20:00,63.1,55.4,29.88,ESE,120,2.0,3.0,76,0.00,,,0.01,WeatherCatV1.21B27,2013-08-09 19:20:00,
2013-08-09 12:25:00,62.4,55.1,29.88,East,93,1.0,5.0,77,0.00,,,0.01,WeatherCatV1.21B27,2013-08-09 19:25:00,
2013-08-09 12:30:00,62.7,55.4,29.88,NE,47,6.0,10.0,77,0.00,,,0.01,WeatherCatV1.21B27,2013-08-09 19:30:00,
2013-08-09 12:35:00,62.6,55.3,29.89,ENE,57,8.0,8.0,77,0.00,,,0.01,WeatherCatV1.21B27,2013-08-09 19:35:00,
2013-08-09 12:40:00,63.0,55.7,29.88,East,86,4.0,5.0,77,0.00,,,0.01,WeatherCatV1.21B27,2013-08-09 19:40:00,
2013-08-09 12:45:00,63.4,56.1,29.88,WNW,298,1.0,3.0,77,0.00,,,0.01,WeatherCatV1.21B27,2013-08-09 19:45:00,
2013-08-09 12:50:00,64.2,56.5,29.88,NE,34,6.0,11.0,76,0.00,,,0.01,WeatherCatV1.21B27,2013-08-09 19:50:00,
2013-08-09 12:55:00,64.4,56.7,29.88,NNE,32,8.0,9.0,76,0.00,,,0.01,WeatherCatV1.21B27,2013-08-09 19:55:00,
2013-08-09 13:00:00,64.3,56.9,29.88,East,81,5.0,7.0,77,0.00,,,0.01,WeatherCatV1.21B27,2013-08-09 20:00:00,
2013-08-09 13:05:00,63.8,56.1,29.88,NE,55,9.0,11.0,76,0.00,,,0.01,WeatherCatV1.21B27,2013-08-09 20:05:00,
2013-08-09 13:10:00,63.0,55.7,29.88,NNE,13,6.0,8.0,77,0.00,,,0.01,WeatherCatV1.21B27,2013-08-09 20:10:00,
2013-08-09 13:15:00,63.5,55.8,29.88,NE,53,2.0,13.0,76,0.00,,,0.01,WeatherCatV1.21B27,2013-08-09 20:15:00,
2013-08-09 13:25:00,65.0,56.9,29.87,NE,49,5.0,11.0,75,0.00,,,0.01,WeatherCatV1.21B27,2013-08-09 20:25:00,
2013-08-09 13:30:00,65.9,57.4,29.88,NNW,329,5.0,6.0,74,0.00,,,0.01,WeatherCatV1.21B27,2013-08-09 20:30:00,
2013-08-09 13:35:00,66.4,57.5,29.88,ENE,63,4.0,6.0,73,0.00,,,0.01,WeatherCatV1.21B27,2013-08-09 20:35:00,
2013-08-09 13:40:00,66.0,57.5,29.88,SE,134,2.0,5.0,74,0.00,,,0.01,WeatherCatV1.21B27,2013-08-09 20:40:00,
2013-08-09 13:45:00,65.7,57.2,29.88,NNW,347,3.0,9.0,74,0.00,,,0.01,WeatherCatV1.21B27,2013-08-09 20:45:00,
2013-08-09 13:50:00,65.5,57.0,29.88,NNE,20,7.0,7.0,74,0.00,,,0.01,WeatherCatV1.21B27,2013-08-09 20:50:00,
2013-08-09 14:00:00,65.4,56.5,29.88,West,272,2.0,13.0,73,0.00,,,0.01,WeatherCatV1.21B27,2013-08-09 21:00:00,
2013-08-09 14:05:00,64.8,56.3,29.88,NNE,30,4.0,10.0,74,0.00,,,0.01,WeatherCatV1.21B27,2013-08-09 21:05:00,
2013-08-09 14:10:00,63.6,55.9,29.88,East,101,3.0,5.0,76,0.00,,,0.01,WeatherCatV1.21B27,2013-08-09 21:10:00,
2013-08-09 14:15:00,62.8,55.1,29.88,NNE,19,3.0,9.0,76,0.00,,,0.01,WeatherCatV1.21B27,2013-08-09 21:15:00,
2013-08-09 14:20:00,62.6,55.3,29.88,NNE,28,8.0,10.0,77,0.00,,,0.01,WeatherCatV1.21B27,2013-08-09 21:20:00,
2013-08-09 14:25:00,63.2,55.9,29.88,ENE,61,8.0,13.0,77,0.00,,,0.01,WeatherCatV1.21B27,2013-08-09 21:25:00,
2013-08-09 14:30:00,62.3,55.0,29.88,East,90,3.0,6.0,77,0.00,,,0.01,WeatherCatV1.21B27,2013-08-09 21:30:00,
2013-08-09 14:35:00,62.6,55.3,29.88,NE,49,4.0,4.0,77,0.00,,,0.01,WeatherCatV1.21B27,2013-08-09 21:35:00,
2013-08-09 14:40:00,63.0,55.3,29.88,NE,42,7.0,12.0,76,0.00,,,0.01,WeatherCatV1.21B27,2013-08-09 21:40:00,
2013-08-09 14:45:00,62.4,55.1,29.88,WSW,249,2.0,12.0,77,0.00,,,0.01,WeatherCatV1.21B27,2013-08-09 21:45:00,
2013-08-09 14:50:00,62.9,55.2,29.88,NNW,347,6.0,13.0,76,0.00,,,0.01,WeatherCatV1.21B27,2013-08-09 21:50:00,
2013-08-09 14:55:00,62.4,55.1,29.89,East,82,2.0,9.0,77,0.00,,,0.01,WeatherCatV1.21B27,2013-08-09 21:55:00,
2013-08-09 15:00:00,63.4,56.1,29.88,SE,144,0.0,5.0,77,0.00,,,0.01,WeatherCatV1.21B27,2013-08-09 22:00:00,
2013-08-09 15:05:00,63.2,55.9,29.88,East,95,2.0,6.0,77,0.00,,,0.01,WeatherCatV1.21B27,2013-08-09 22:05:00,
2013-08-09 15:10:00,62.5,54.8,29.88,SE,133,2.0,4.0,76,0.00,,,0.01,WeatherCatV1.21B27,2013-08-09 22:10:00,
2013-08-09 15:15:00,63.3,55.6,29.88,NE,49,10.0,10.0,76,0.00,,,0.01,WeatherCatV1.21B27,2013-08-09 22:15:00,
2013-08-09 15:20:00,63.3,55.6,29.88,ENE,74,6.0,11.0,76,0.00,,,0.01,WeatherCatV1.21B27,2013-08-09 22:20:00,
2013-08-09 15:25:00,63.1,55.8,29.88,East,79,2.0,4.0,77,0.00,,,0.01,WeatherCatV1.21B27,2013-08-09 22:25:00,
2013-08-09 15:30:00,64.3,55.8,29.87,SE,130,3.0,10.0,74,0.00,,,0.01,WeatherCatV1.21B27,2013-08-09 22:30:00,
2013-08-09 15:35:00,63.7,56.0,29.87,East,101,2.0,2.0,76,0.00,,,0.01,WeatherCatV1.21B27,2013-08-09 22:35:00,
2013-08-09 15:40:00,63.7,55.6,29.88,East,98,6.0,12.0,75,0.00,,,0.01,WeatherCatV1.21B27,2013-08-09 22:40:00,
2013-08-09 15:45:00,63.7,56.0,29.87,East,84,11.0,13.0,76,0.00,,,0.01,WeatherCatV1.21B27,2013-08-09 22:45:00,
2013-08-09 15:50:00,63.0,55.3,29.87,SW,227,2.0,5.0,76,0.00,,,0.01,WeatherCatV1.21B27,2013-08-09 22:50:00,
2013-08-09 15:55:00,63.6,55.9,29.87,ENE,74,2.0,5.0,76,0.00,,,0.01,WeatherCatV1.21B27,2013-08-09 22:55:00,
2013-08-09 16:00:00,63.7,55.6,29.87,East,96,4.0,13.0,75,0.00,,,0.01,WeatherCatV1.21B27,2013-08-09 23:00:00,
2013-08-09 16:05:00,63.4,55.7,29.87,West,281,4.0,4.0,76,0.00,,,0.01,WeatherCatV1.21B27,2013-08-09 23:05:00,
2013-08-09 16:10:00,64.5,56.4,29.87,East,79,4.0,11.0,75,0.00,,,0.01,WeatherCatV1.21B27,2013-08-09 23:10:00,
2013-08-09 16:15:00,63.9,55.4,29.87,ESE,108,2.0,10.0,74,0.00,,,0.01,WeatherCatV1.21B27,2013-08-09 23:15:00,
2013-08-09 16:20:00,63.1,55.4,29.87,ENE,71,9.0,13.0,76,0.00,,,0.01,WeatherCatV1.21B27,2013-08-09 23:20:00,
2013-08-09 16:25:00,63.2,55.5,29.87,SE,128,1.0,6.0,76,0.00,,,0.01,WeatherCatV1.21B27,2013-08-09 23:25:00,
2013-08-09 16:30:00,64.0,55.9,29.87,NE,44,11.0,12.0,75,0.00,,,0.01,WeatherCatV1.21B27,2013-08-09 23:30:00,
2013-08-09 16:35:00,62.6,54.6,29.87,SE,128,3.0,13.0,75,0.00,,,0.01,WeatherCatV1.21B27,2013-08-09 23:35:00,
2013-08-09 16:40:00,62.2,54.9,29.87,NNE,32,3.0,9.0,77,0.00,,,0.01,WeatherCatV1.21B27,2013-08-09 23:40:00,
2013-08-09 16:45:00,61.5,54.2,29.87,ENE,58,5.0,8.0,77,0.00,,,0.01,WeatherCatV1.21B27,2013-08-09 23:45:00,
2013-08-09 16:50:00,60.9,53.3,29.88,North,350,4.0,7.0,76,0.00,,,0.01,WeatherCatV1.21B27,2013-08-09 23:50:00,
2013-08-09 16:55:00,60.7,53.4,29.88,ESE,105,3.0,6.0,77,0.00,,,0.01,WeatherCatV1.21B27,2013-08-09 23:55:00,
2013-08-09 17:00:00,60.3,52.7,29.87,East,84,1.0,6.0,76,0.00,,,0.01,WeatherCatV1.21B27,2013-08-10 00:00:00,
2013-08-09 17:05:00,60.6,53.0,29.88,ENE,69,5.0,7.0,76,0.00,,,0.01,WeatherCatV1.21B27,2013-08-10 00:05:00,
2013-08-09 17:10:00,59.5,51.6,29.88,East,100,3.0,4.0,75,0.00,,,0.01,WeatherCatV1.21B27,2013-08-10 00:10:00,
2013-08-09 17:15:00,59.5,50.8,29.88,South,191,0.0,3.0,73,0.00,,,0.01,WeatherCatV1.21B27,2013-08-10 00:15:00,
2013-08-09 17:20:00,59.5,50.8,29.88,NE,40,3.0,7.0,73,0.00,,,0.01,WeatherCatV1.21B27,2013-08-10 00:20:00,
2013-08-09 17:25:00,59.0,50.0,29.88,ESE,117,1.0,7.0,72,0.00,,,0.01,WeatherCatV1.21B27,2013-08-10 00:25:00,
2013-08-09 17:30:00,58.9,48.8,29.88,ENE,67,2.0,4.0,69,0.00,,,0.01,WeatherCatV1.21B27,2013-08-10 00:30:00,
2013-08-09 17:35:00,58.8,49.8,29.88,ESE,111,3.0,6.0,72,0.00,,,0.01,WeatherCatV1.21B27,2013-08-10 00:35:00,
2013-08-09 17:40:00,58.6,47.7,29.88,ESE,119,1.0,3.0,67,0.00,,,0.01,WeatherCatV1.21B27,2013-08-10 00:40:00,
2013-08-09 17:45:00,58.4,47.1,29.88,WSW,241,3.0,5.0,66,0.00,,,0.01,WeatherCatV1.21B27,2013-08-10 00:45:00,
2013-08-09 17:50:00,58.2,46.9,29.88,SE,128,0.0,1.0,66,0.00,,,0.01,WeatherCatV1.21B27,2013-08-10 00:50:00,
2013-08-09 17:55:00,58.1,46.8,29.88,SSW,207,0.0,2.0,66,0.00,,,0.01,WeatherCatV1.21B27,2013-08-10 00:55:00,
2013-08-09 18:00:00,57.9,45.8,29.88,ESE,103,2.0,2.0,64,0.00,,,0.01,WeatherCatV1.21B27,2013-08-10 01:00:00,
2013-08-09 18:05:00,57.9,46.6,29.88,ENE,73,3.0,4.0,66,0.00,,,0.01,WeatherCatV1.21B27,2013-08-10 01:05:00,
2013-08-09 18:10:00,57.7,45.2,29.88,South,187,0.0,3.0,63,0.00,,,0.01,WeatherCatV1.21B27,2013-08-10 01:10:00,
2013-08-09 18:15:00,57.8,44.0,29.88,ENE,66,2.0,4.0,60,0.00,,,0.01,WeatherCatV1.21B27,2013-08-10 01:15:00,
2013-08-09 18:20:00,57.6,43.4,29.88,SSE,165,0.0,1.0,59,0.00,,,0.01,WeatherCatV1.21B27,2013-08-10 01:20:00,
2013-08-09 18:25:00,57.3,42.7,29.88,SSE,158,0.0,0.0,58,0.00,,,0.01,WeatherCatV1.21B27,2013-08-10 01:25:00,
2013-08-09 18:30:00,57.0,40.0,29.88,SSW,205,2.0,3.0,53,0.00,,,0.01,WeatherCatV1.21B27,2013-08-10 01:30:00,
2013-08-09 18:35:00,56.7,38.8,29.88,SSW,213,3.0,4.0,51,0.00,,,0.01,WeatherCatV1.21B27,2013-08-10 01:35:00,
2013-08-09 18:40:00,56.6,37.1,29.88,SE,140,1.0,5.0,48,0.00,,,0.00,WeatherCatV1.21B27,2013-08-10 01:40:00,
2013-08-09 18:45:00,56.4,35.3,29.88,ESE,122,1.0,2.0,45,0.00,,,0.00,WeatherCatV1.21B27,2013-08-10 01:45:00,
2013-08-09 18:50:00,56.2,34.0,29.88,SE,124,1.0,2.0,43,0.00,,,0.00,WeatherCatV1.21B27,2013-08-10 01:50:00,
2013-08-09 18:55:00,56.0,28.7,29.88,SSE,158,1.0,3.0,35,0.00,,,0.00,WeatherCatV1.21B27,2013-08-10 01:55:00,
2013-08-09 19:00:00,56.0,25.8,29.89,SSE,168,0.0,0.0,31,0.00,,,0.00,WeatherCatV1.21B27,2013-08-10 02:00:00,
2013-08-09 19:05:00,55.8,27.1,29.88,SE,145,0.0,2.0,33,0.00,,,0.00,WeatherCatV1.21B27,2013-08-10 02:05:00,
2013-08-09 19:10:00,55.7,23.1,29.89,SSE,150,0.0,1.0,28,0.00,,,0.00,WeatherCatV1.21B27,2013-08-10 02:10:00,
2013-08-09 19:15:00,55.6,18.4,29.89,SSE,155,0.0,2.0,23,0.00,,,0.00,WeatherCatV1.21B27,2013-08-10 02:15:00,
2013-08-09 19:20:00,55.5,17.3,29.89,SE,144,0.0,2.0,22,0.00,,,0.00,WeatherCatV1.21B27,2013-08-10 02:20:00,
2013-08-09 19:25:00,55.4,11.3,29.89,SSE,158,0.0,2.0,17,0.00,,,0.00,WeatherCatV1.21B27,2013-08-10 02:25:00,
2013-08-09 19:30:00,55.2,6.9,29.89,SE,135,0.0,0.0,14,0.00,,,0.00,WeatherCatV1.21B27,2013-08-10 02:30:00,
2013-08-09 19:35:00,55.1,-7.9,29.89,SSE,164,0.0,0.0,7,0.00,,,0.00,WeatherCatV1.21B27,2013-08-10 02:35:00,
2013-08-09 19:40:00,54.9,-14.8,29.89,SSE,148,0.0,2.0,5,0.00,,,0.00,WeatherCatV1.21B27,2013-08-10 02:40:00,
2013-08-09 19:45:00,54.8,-44.0,29.89,South,171,0.0,3.0,1,0.00,,,0.00,WeatherCatV1.21B27,2013-08-10 02:45:00,
2013-08-09 19:50:00,54.7,-44.0,29.90,SE,141,1.0,4.0,1,0.00,,,0.00,WeatherCatV1.21B27,2013-08-10 02:50:00,
2013-08-09 19:55:00,54.5,-44.0,29.89,SE,140,1.0,3.0,1,0.00,,,0.00,WeatherCatV1.21B27,2013-08-10 02:55:00,
2013-08-09 20:00:00,54.3,-44.0,29.90,SE,143,1.0,5.0,1,0.00,,,0.00,WeatherCatV1.21B27,2013-08-10 03:00:00,
2013-08-09 20:13:00,54.2,-44.0,29.90,SSE,149,1.0,6.0,1,0.00,,,0.00,WeatherCatV1.21B27,2013-08-10 03:13:00,
2013-08-09 20:19:00,53.5,-99.9,29.90,South,180,1.0,3.0,1,0.00,,,0.01,WeatherCatV1.21B27,2013-08-10 03:19:00,
2013-08-09 20:24:00,53.3,-99.9,29.90,SE,136,0.0,0.0,1,0.00,,,0.01,WeatherCatV1.21B27,2013-08-10 03:24:00,
2013-08-09 20:29:00,53.1,-99.9,29.90,ESE,119,0.0,0.0,1,0.00,,,0.01,WeatherCatV1.21B27,2013-08-10 03:29:00,
2013-08-09 20:33:00,52.8,-99.9,29.90,SSE,152,0.0,4.0,1,0.00,,,0.01,WeatherCatV1.21B27,2013-08-10 03:33:00,
2013-08-09 20:38:00,52.5,-99.9,29.90,SSE,163,0.0,3.0,1,0.00,,,0.01,WeatherCatV1.21B27,2013-08-10 03:38:00,
2013-08-09 20:44:00,52.2,-99.9,29.90,East,96,2.0,3.0,1,0.00,,,0.01,WeatherCatV1.21B27,2013-08-10 03:44:00,
2013-08-09 20:48:00,51.9,-99.9,29.90,South,188,2.0,2.0,1,0.00,,,0.01,WeatherCatV1.21B27,2013-08-10 03:48:00,
2013-08-09 20:53:00,51.7,-99.9,29.90,SSE,161,0.0,2.0,1,0.00,,,0.01,WeatherCatV1.21B27,2013-08-10 03:53:00,
2013-08-09 20:58:00,51.4,-99.9,29.90,SSE,148,0.0,2.0,1,0.00,,,0.01,WeatherCatV1.21B27,2013-08-10 03:58:00,
2013-08-09 21:03:00,51.2,-99.9,29.90,SSE,159,0.0,4.0,1,0.00,,,0.01,WeatherCatV1.21B27,2013-08-10 04:03:00,
2013-08-09 21:08:00,51.0,-99.9,29.90,South,178,0.0,6.0,1,0.00,,,0.01,WeatherCatV1.21B27,2013-08-10 04:08:00,
2013-08-09 21:13:00,50.8,-99.9,29.90,SSE,147,0.0,5.0,1,0.00,,,0.01,WeatherCatV1.21B27,2013-08-10 04:13:00,
2013-08-09 21:18:00,50.7,-99.9,29.91,SE,137,5.0,6.0,1,0.00,,,0.01,WeatherCatV1.21B27,2013-08-10 04:18:00,
2013-08-09 21:23:00,50.5,-99.9,29.91,WSW,258,3.0,5.0,1,0.00,,,0.01,WeatherCatV1.21B27,2013-08-10 04:23:00,
2013-08-09 21:28:00,50.4,-99.9,29.91,South,173,3.0,5.0,1,0.00,,,0.01,WeatherCatV1.21B27,2013-08-10 04:28:00,
2013-08-09 21:33:00,50.4,-99.9,29.91,SE,144,0.0,3.0,1,0.00,,,0.01,WeatherCatV1.21B27,2013-08-10 04:33:00,
2013-08-09 21:38:00,50.3,-99.9,29.91,SE,132,0.0,2.0,1,0.00,,,0.01,WeatherCatV1.21B27,2013-08-10 04:38:00,
2013-08-09 21:44:00,50.3,-99.9,29.91,ESE,119,1.0,5.0,1,0.00,,,0.01,WeatherCatV1.21B27,2013-08-10 04:44:00,
2013-08-09 21:48:00,50.2,-99.9,29.92,SE,140,1.0,5.0,1,0.00,,,0.01,WeatherCatV1.21B27,2013-08-10 04:48:00,
2013-08-09 21:53:00,50.1,-99.9,29.92,SW,215,2.0,3.0,1,0.00,,,0.01,WeatherCatV1.21B27,2013-08-10 04:53:00,
2013-08-09 21:58:00,50.1,-99.9,29.92,SSE,150,0.0,5.0,1,0.00,,,0.01,WeatherCatV1.21B27,2013-08-10 04:58:00,
2013-08-09 22:03:00,50.1,-99.9,29.91,SSE,154,2.0,6.0,1,0.00,,,0.01,WeatherCatV1.21B27,2013-08-10 05:03:00,
2013-08-09 22:08:00,50.1,-99.9,29.91,SE,125,0.0,7.0,1,0.00,,,0.01,WeatherCatV1.21B27,2013-08-10 05:08:00,
2013-08-09 22:13:00,50.1,-99.9,29.91,ESE,111,2.0,5.0,1,0.00,,,0.01,WeatherCatV1.21B27,2013-08-10 05:13:00,
2013-08-09 22:18:00,50.1,-99.9,29.91,SSE,163,0.0,0.0,1,0.00,,,0.01,WeatherCatV1.21B27,2013-08-10 05:18:00,
2013-08-09 22:23:00,50.1,-99.9,29.91,NE,35,5.0,6.0,1,0.00,,,0.01,WeatherCatV1.21B27,2013-08-10 05:23:00,
2013-08-09 22:28:00,50.1,-99.9,29.91,ESE,115,1.0,5.0,1,0.00,,,0.01,WeatherCatV1.21B27,2013-08-10 05:28:00,
2013-08-09 22:33:00,50.1,-99.9,29.91,WSW,246,4.0,6.0,1,0.00,,,0.01,WeatherCatV1.21B27,2013-08-10 05:33:00,
2013-08-09 22:38:00,50.2,-99.9,29.91,NE,43,2.0,5.0,1,0.00,,,0.01,WeatherCatV1.21B27,2013-08-10 05:38:00,
2013-08-09 22:43:00,50.2,-99.9,29.91,ESE,118,4.0,7.0,1,0.00,,,0.01,WeatherCatV1.21B27,2013-08-10 05:43:00,
2013-08-09 22:48:00,50.3,-99.9,29.92,SE,137,1.0,7.0,1,0.00,,,0.01,WeatherCatV1.21B27,2013-08-10 05:48:00,
2013-08-09 22:53:00,50.3,-99.9,29.92,SSE,151,0.0,0.0,1,0.00,,,0.01,WeatherCatV1.21B27,2013-08-10 05:53:00,
2013-08-09 22:58:00,50.3,-99.9,29.91,ESE,119,2.0,3.0,1,0.00,,,0.01,WeatherCatV1.21B27,2013-08-10 05:58:00,
2013-08-09 23:03:00,50.3,-99.9,29.91,SSE,150,0.0,0.0,1,0.00,,,0.01,WeatherCatV1.21B27,2013-08-10 06:03:00,
2013-08-09 23:08:00,50.3,-99.9,29.91,SSE,150,0.0,0.0,1,0.00,,,0.01,WeatherCatV1.21B27,2013-08-10 06:08:00,
2013-08-09 23:13:00,50.3,-99.9,29.91,SE,140,0.0,9.0,1,0.00,,,0.01,WeatherCatV1.21B27,2013-08-10 06:13:00,
2013-08-09 23:19:00,50.3,-99.9,29.91,ESE,122,0.0,0.0,1,0.00,,,0.01,WeatherCatV1.21B27,2013-08-10 06:19:00,
2013-08-09 23:23:00,50.3,-99.9,29.92,SSE,159,0.0,4.0,1,0.00,,,0.01,WeatherCatV1.21B27,2013-08-10 06:23:00,
2013-08-09 23:28:00,50.3,-99.9,29.92,SE,129,0.0,3.0,1,0.00,,,0.01,WeatherCatV1.21B27,2013-08-10 06:28:00,
2013-08-09 23:33:00,50.3,-99.9,29.92,ESE,121,0.0,6.0,1,0.00,,,0.01,WeatherCatV1.21B27,2013-08-10 06:33:00,
2013-08-09 23:38:00,50.3,-99.9,29.92,SE,126,0.0,3.0,1,0.00,,,0.01,WeatherCatV1.21B27,2013-08-10 06:38:00,
2013-08-09 23:43:00,50.3,-99.9,29.92,SE,139,0.0,0.0,1,0.00,,,0.01,WeatherCatV1.21B27,2013-08-10 06:43:00,
2013-08-09 23:48:00,50.3,-99.9,29.92,SSE,150,0.0,0.0,1,0.00,,,0.01,WeatherCatV1.21B27,2013-08-10 06:48:00,
2013-08-09 23:53:00,50.2,-99.9,29.92,East,101,4.0,4.0,1,0.00,,,0.01,WeatherCatV1.21B27,2013-08-10 06:53:00,
2013-08-09 23:58:00,50.2,-99.9,29.92,SE,132,0.0,0.0,1,0.00,,,0.01,WeatherCatV1.21B27,2013-08-10 06:58:00,